Location: St. Louis
(38.6270°N, 90.1994°W)
Time: 22:32:23
(UTC-06:00)

YUBILEINY - Visible Passes

Search period start: 24 January 2022 00:00
Search period end: 03 February 2022 00:00
Orbit: 1479 x 1508 km, 82.5° (Epoch: 24 January)

Date Brightness Start Highest point End Pass type
(mag) Time Alt. Az. Time Alt. Az. Time Alt. Az.
24 Jan ? 19:33:38 10° NNE 19:33:58 11° NNE 19:33:58 11° NNE visible
24 Jan ? 21:28:41 10° N 21:29:54 15° N 21:29:54 15° N visible
25 Jan ? 20:39:13 10° N 20:41:04 18° N 20:41:04 18° N visible
25 Jan ? 22:36:52 10° NNW 22:37:00 10° NNW 22:37:00 10° NNW visible
26 Jan ? 19:50:17 10° N 19:52:15 17° NNE 19:52:15 17° NNE visible
26 Jan ? 21:46:29 10° NNW 21:48:12 17° NNW 21:48:12 17° NNW visible
27 Jan ? 19:02:21 10° NNE 19:03:29 12° NNE 19:03:29 12° NNE visible
27 Jan ? 20:56:42 10° N 20:59:26 23° N 20:59:26 23° N visible
28 Jan ? 20:07:23 10° N 20:10:43 24° NNE 20:10:43 24° NNE visible
28 Jan ? 22:04:35 10° NNW 22:06:40 18° NNW 22:06:40 18° NNW visible
29 Jan ? 19:18:39 10° NNE 19:22:04 20° NE 19:22:04 20° NE visible
29 Jan ? 21:14:25 10° NNW 21:18:01 28° NNW 21:18:01 28° NNW visible
30 Jan ? 18:31:27 10° NE 18:33:29 12° NE 18:33:29 12° NE visible
30 Jan ? 20:24:46 10° N 20:29:27 36° N 20:29:27 36° N visible
30 Jan ? 22:23:07 10° NW 22:25:24 16° NW 22:25:24 16° NW visible
31 Jan ? 19:35:35 10° N 19:40:58 32° NE 19:40:58 32° NE visible
31 Jan ? 21:32:22 10° NNW 21:36:56 31° NW 21:36:56 31° NW visible
01 Feb ? 18:47:07 10° NNE 18:52:35 21° ENE 18:52:35 21° ENE visible
01 Feb ? 20:42:23 10° N 20:48:34 51° NNW 20:48:34 51° NNW visible
01 Feb ? 22:42:47 10° NW 22:44:33 12° WNW 22:44:33 12° WNW visible
02 Feb ? 19:52:52 10° N 20:00:22 56° NE 20:00:22 56° NE visible
02 Feb ? 21:50:42 10° NNW 21:56:22 27° WNW 21:56:22 27° WNW visible
